Location: La Chapelle
(46.1008°N, 1.8397°E)
Time: 17:52:41
(UTC+00:00)

Daily predictions for brighter satellites

Satellite Brightness Start Highest point End
(mag) Time Altitude Azimuth Time Altitude Azimuth Time Altitude Azimuth
Cosmos 1844 Rocket 3.7 20:19:51 10° NNW 20:25:04 35° NE 20:30:14 10° ESE
Cosmos 1452 Rocket 3.8 20:20:19 10° S 20:25:21 47° ESE 20:30:24 10° NNE
SL-8 R/B 4.0 20:21:38 10° WNW 20:26:26 72° N 20:31:14 10° E
Cosmos 2056 Rocket 4.3 20:25:34 10° SW 20:30:42 58° WNW 20:35:56 10° NNE
NOSS 3-2 (A) 4.2 20:26:05 10° WSW 20:31:40 58° NW 20:38:09 10° NE
NOSS 3-2 (C) 3.5 20:27:09 10° SW 20:32:46 87° NW 20:39:17 10° NE
ARIANE 5 R/B 3.6 20:29:35 10° SE 20:33:35 34° ENE 20:37:39 10° N
Cosmos 1850 Rocket 4.4 20:29:44 10° NNW 20:34:57 54° ENE 20:40:05 10° SE
FALCON 9 DEB 3.7 20:33:23 10° SSW 20:36:33 36° SE 20:39:43 10° ENE
ATLAS 3B R/B 3.7 20:32:40 10° SSE 20:37:25 22° ESE 20:42:15 10° ENE
Cosmos 1908 4.4 20:34:14 10° NNE 20:37:40 29° ENE 20:40:58 10° SE
Cosmos 2263 Rocket 3.1 20:33:06 10° NW 20:38:32 47° WSW 20:43:57 10° S
SPOT 1/Viking Rocket 3.6 20:34:26 10° SSE 20:39:31 67° ENE 20:44:38 10° N
Cosmos 1758 3.3 20:35:59 10° N 20:39:58 82° E 20:43:56 10° S
Landsat 7 3.9 20:37:57 10° S 20:42:42 80° WSW 20:47:30 10° NNW
Spot 2 Rocket 3.8 20:40:38 10° SE 20:45:32 53° ENE 20:50:29 10° N
CZ-2C R/B 3.9 20:41:03 10° NNE 20:45:49 65° ESE 20:50:34 10° S
Cosmos 1707 2.8 20:42:33 10° SSW 20:46:25 80° W 20:50:20 10° N
Okean 2 4.2 20:43:06 10° SSW 20:47:06 53° WNW 20:51:07 10° N
Lacrosse 5 rocket 2.1 20:44:15 10° S 20:47:17 24° SE 20:50:14 10° ENE
Okean 1 Rocket 3.7 20:43:18 10° NNW 20:47:35 56° W 20:51:52 10° S
Cosmos 2173 Rocket 4.4 20:41:59 10° N 20:48:12 51° ENE 20:54:11 11° SSE
ERS-1 Rocket 3.7 20:44:31 10° SE 20:49:05 40° ENE 20:53:47 10° N
In-Cosmos 22 4.1 20:44:06 10° S 20:49:20 70° E 20:54:36 10° NNE
Cosmos 1455 Rocket 3.5 20:45:24 10° N 20:49:46 50° ENE 20:53:47 12° SSE
MetOp-B 4.3 20:49:40 10° S 20:55:01 78° WSW 21:00:24 10° NNW
Meteor 2-20 Rocket 4.4 20:50:56 10° S 20:57:03 80° E 21:03:11 10° N
BREEZE-M DEB (TANK) 2.3 20:57:08 10° SSW 20:59:16 28° SE 21:02:31 10° ENE
Cosmos 2333 Rocket 3.2 20:55:52 11° SSE 21:00:24 27° ESE 21:05:07 10° NE
Cosmos 1727 Rocket 4.1 20:54:29 10° S 21:00:50 89° WNW 21:07:08 10° N
USA 215 4.3 20:57:33 10° ENE 21:02:30 23° SE 21:07:26 10° S
Cosmos 1626 2.7 21:04:14 15° SSE 21:06:55 37° E 21:10:22 10° NNE
Cosmos 1953 2.4 21:02:56 10° N 21:07:01 71° E 21:10:22 15° SSE
SPOT 3 Rocket 4.3 21:02:22 10° S 21:07:21 49° W 21:12:24 10° NNW
Cosmos 1741 Rocket 4.0 21:02:28 10° NNW 21:07:46 87° WSW 21:12:22 14° SSE
SL-14 R/B 4.4 21:08:38 16° SE 21:11:03 29° E 21:14:33 10° NNE
Cosmos 2219 Rocket 3.2 21:07:37 14° SSE 21:11:29 27° ESE 21:16:12 10° NE
Cosmos 1844 3.9 21:06:41 10° NNW 21:12:14 63° ENE 21:16:41 16° SE
CENTAUR R/B 3.8 21:10:35 10° WSW 21:16:27 47° NW 21:23:27 10° NE
Cosmos 1802 Rocket 4.1 21:12:10 10° N 21:18:26 67° E 21:23:39 16° SSE
DNEPR-1 R/B 4.3 21:19:18 10° NNW 21:23:21 42° NE 21:26:37 15° ESE
KORONAS-FOTON 4.1 21:22:12 10° SSW 21:25:58 67° W 21:29:45 10° N
Cosmos 1025 Rocket 3.0 21:22:43 14° S 21:26:28 70° E 21:30:50 10° NNE
Cosmos 2237 Rocket 4.2 21:27:27 10° ESE 21:28:29 10° E 21:29:32 10° E
Aureole 1 Rocket 4.1 21:24:01 10° NNW 21:29:53 86° WSW 21:35:50 17° SSE
CARTOSAT-1 3.9 21:27:34 15° S 21:31:07 61° W 21:35:24 10° NNW
Resurs 01 Rocket 3.8 21:29:23 10° SW 21:32:41 21° W 21:36:00 10° NW
Cosmos 1459 Rocket 4.0 21:26:38 10° N 21:32:42 80° W 21:37:55 14° S
Cosmos 2360 Rocket 2.3 21:27:56 10° SSW 21:33:36 84° WNW 21:39:17 10° NNE
Cosmos 1461 3.0 21:29:30 10° NW 21:33:41 64° WSW 21:36:05 23° SSE
SL-16 R/B 3.5 21:28:21 10° SW 21:33:42 42° NW 21:39:06 10° NNE
Cosmos 2322 Rocket 3.2 21:30:11 10° SW 21:35:43 50° WNW 21:41:18 10° NNE
USA 267 4.4 21:31:13 10° E 21:37:16 42° NNE 21:43:20 10° NW
Cosmos 1975 Rocket 4.1 21:36:14 10° SSW 21:40:24 45° WNW 21:44:39 10° N
Cosmos 1900 4.3 21:37:00 10° NW 21:41:57 87° NE 21:44:58 23° SE
Cosmos 1674 3.8 21:38:59 10° SSW 21:42:30 41° WNW 21:46:02 10° N
Cosmos 1110 Rocket 4.2 21:39:01 10° SSW 21:44:11 75° WNW 21:49:25 10° NNE
SPOT 5 3.2 21:41:32 18° S 21:45:26 68° WSW 21:50:22 10° NNW
ATLAS CENTAUR R/B 1.7 21:41:21 10° NNW 21:45:39 67° NE 21:48:22 23° SE
Cosmos 968 Rocket 4.0 21:45:27 10° NNW 21:50:25 48° ENE 21:53:28 22° SE
COSMOS 2428 3.1 21:48:21 20° S 21:52:05 47° ESE 21:57:33 10° NE
Terra 1.8 21:49:22 22° S 21:52:26 80° WSW 21:57:14 10° NNW
Cosmos 1300 2.7 21:49:00 10° N 21:52:49 69° E 21:54:30 31° SSE
Cosmos 2322 3.7 21:48:35 12° SSW 21:53:50 69° ESE 21:59:28 10° NNE
FALCON 9 DEB 3.7 21:54:51 32° ESE 21:54:51 32° ESE 21:57:07 10° ENE
Cosmos 2061 Rocket 4.1 21:48:07 10° N 21:54:36 86° W 21:59:13 20° S
Cosmos 1864 Rocket 4.5 21:50:17 10° N 21:56:31 87° W 22:00:47 21° S
OPS 8737 4.5 21:53:22 10° SW 21:57:29 86° NW 22:00:39 10° NE
SL-24 R/B 4.3 21:53:51 10° N 21:58:42 71° E 22:01:29 25° S
Cosmos 2278 Rocket 3.3 21:54:51 10° NNW 22:00:03 35° NE 22:04:01 16° ESE
Cosmos 405 2.9 21:57:01 10° NNW 22:00:29 77° W 22:01:49 34° S
ATLAS CENTAUR R/B 4.4 21:59:32 16° ESE 22:00:58 17° E 22:06:20 10° ENE
Lacrosse 5 4.0 21:58:34 10° W 22:01:26 15° WSW 22:04:03 11° SSW
Cosmos 2123 Rocket 4.1 21:59:11 14° SSW 22:04:40 80° W 22:11:02 10° N
SL-8 R/B 3.9 22:04:17 10° WNW 22:08:57 53° SSW 22:10:57 31° SSE
Cosmos 1844 Rocket 3.5 22:03:44 10° NW 22:09:01 41° WSW 22:12:33 20° SSW
Cosmos 1340 3.1 22:06:53 20° SSW 22:09:18 58° WNW 22:13:02 10° N
ARIANE 5 R/B 4.3 22:06:43 12° SSW 22:10:04 27° W 22:13:54 10° NW
Cosmos 1346 Rocket 3.3 22:11:16 34° SE 22:12:23 43° E 22:16:13 10° NNE
FALCON 9 DEB 4.3 22:10:06 10° W 22:13:24 44° NNW 22:16:41 10° NE
H-2A R/B 3.6 22:09:32 10° N 22:13:36 71° WNW 22:16:08 22° SSW
Cosmos 2233 Rocket 3.9 22:07:28 10° N 22:13:39 82° E 22:17:18 26° SSE
FALCON 9 DEB 2.6 22:11:38 10° SW 22:14:44 79° SE 22:17:50 10° ENE
GEOS 3 Rocket 4.0 22:11:18 20° ESE 22:14:58 60° NE 22:20:14 10° NNW
FALCON 9 DEB 2.7 22:18:01 53° SSW 22:18:31 66° SE 22:21:38 10° ENE
NOSS 0 Rocket 4.5 22:16:43 27° SSE 22:19:24 41° ESE 22:25:10 10° NE
SL-4 R/B 4.1 22:22:18 12° E 22:22:18 12° E 22:22:45 10° E
Meteor 2-5 Rocket 3.8 22:18:55 20° SSW 22:22:51 77° WNW 22:28:28 10° N
FALCON 9 DEB 2.7 22:21:32 14° WSW 22:24:11 88° SE 22:27:18 10° ENE
Lacrosse 5 rocket 2.0 22:22:37 10° WSW 22:26:10 47° NNW 22:29:39 10° NE
ATLAS 3B R/B 2.7 22:20:45 10° SW 22:27:18 81° NW 22:34:07 10° NE
Cosmos 1606 Rocket 3.7 22:23:11 10° N 22:27:38 62° E 22:29:16 36° SE
ERS-1 Rocket 4.5 22:24:30 14° SSW 22:27:59 28° W 22:32:19 10° NW
SJ 16-02 4.1 22:30:07 10° NE 22:30:40 10° NE 22:31:12 10° NE
Cosmos 1892 Rocket 4.3 22:29:33 32° SE 22:30:42 38° E 22:34:50 10° NNE
ALOS 2 3.8 22:32:40 23° ESE 22:34:28 32° ENE 22:38:23 10° N
Cosmos 1980 4.2 22:35:59 32° SSE 22:37:58 43° ESE 22:43:19 10° NE
Cosmos 1943 Rocket 4.4 22:35:36 10° N 22:39:14 18° NE 22:42:53 10° E
Spot 4 3.9 22:39:08 35° SE 22:41:05 67° ENE 22:45:49 10° N
Cosmos 1503 Rocket 4.4 22:36:00 10° NNW 22:41:19 59° ENE 22:43:52 30° SE
Cosmos 2333 Rocket 2.9 22:38:44 10° SW 22:44:21 53° WNW 22:49:58 10° NNE
USA 215 3.1 22:39:37 10° NE 22:46:11 78° SE 22:52:44 10° SW
Meteor 2-10 Rocket 3.7 22:47:43 10° NNW 22:52:44 60° W 22:54:49 33° SSW
Cosmos 2219 Rocket 3.0 22:49:37 10° SW 22:55:08 51° WNW 23:00:41 10° NNE
Cosmos 1464 Rocket 4.1 22:52:37 10° N 22:58:59 69° E 23:02:03 32° SSE
Cosmos 1867 3.6 22:54:17 10° NW 22:59:45 70° WSW 23:01:49 38° SSE
Cosmos 1607 4.1 22:55:00 10° NW 23:01:28 75° NE 23:05:04 27° SE
Cosmos 389 Rocket 3.1 23:00:23 10° NNW 23:03:38 41° W 23:04:01 40° WSW
Iridium 2 3.8 23:05:20 50° SW 23:06:06 65° W 23:09:51 10° N
COBE Rocket 3.9 23:04:31 40° SSE 23:06:23 84° ENE 23:11:23 10° N
SL-16 R/B 3.4 23:06:17 23° ESE 23:07:26 25° ESE 23:11:58 10° NE
Cosmos 2237 Rocket 2.1 23:09:08 36° S 23:11:30 73° ESE 23:17:08 10° NNE
Cosmos 2228 4.1 23:08:15 10° NNW 23:12:19 37° W 23:13:45 29° SW
Meteor 1-4 Rocket 3.6 23:13:09 10° N 23:16:20 32° ENE 23:16:45 31° E
USA 267 3.2 23:14:47 18° ESE 23:19:53 86° NE 23:26:28 10° NW
Cosmos 1455 2.4 23:16:18 10° NNW 23:20:04 55° W 23:20:36 50° SW
Cosmos 2369 Rocket 4.4 23:17:38 10° N 23:21:50 20° NE 23:26:00 10° E
Cosmos 1184 Rocket 2.8 23:22:45 70° W 23:22:46 70° WNW 23:26:01 10° N
ATLAS CENTAUR R/B 3.5 23:21:17 10° WNW 23:24:09 17° WSW 23:24:30 17° WSW
Okean 1-7 Rocket 3.5 23:27:36 51° S 23:28:43 89° ESE 23:33:13 10° N
FALCON 9 DEB 4.3 23:26:56 10° W 23:29:54 38° NNW 23:32:52 10° NE
Cosmos 1777 Rocket 4.2 23:25:55 10° NNW 23:31:12 66° ENE 23:33:25 35° SE
Cosmos 2034 Rocket 3.9 23:26:52 10° N 23:33:06 86° E 23:35:44 37° S
Meteor 1-21 Rocket 4.2 23:33:20 37° SSW 23:35:40 81° WNW 23:41:25 10° N
COSMOS 2428 4.2 23:31:24 10° WSW 23:36:31 33° NW 23:41:42 10° NNE
Cosmos 1354 Rocket 4.3 23:32:37 10° NNW 23:37:52 57° WSW 23:39:29 40° SSW
Cosmos 192 4.4 23:38:55 38° SW 23:40:46 75° WNW 23:45:43 10° NNE
Cosmos 2297 4.2 23:37:42 10° NNW 23:43:15 54° ENE 23:46:30 24° SE
Cosmos 2058 Rocket 3.7 23:39:20 10° NNW 23:43:34 44° W 23:44:34 38° SW
Cosmos 1812 Rocket 4.0 23:39:52 10° N 23:44:08 53° ENE 23:45:17 40° SE
Cosmos 2278 Rocket 2.8 23:38:54 10° NW 23:44:11 41° WSW 23:45:51 33° SW
